Simultaneous Nadir Overpasses (SNOs) Predictions

Prediction of SNOs between METOP-C and LANDSAT-8 Satellite Orbit:

Table of predicted SNOs for the next 14.0 days since TLE Epoch: 8/26/2023
Index Date (METOP-C) Time (METOP-C) Lat,Lon (METOP-C) SZA (METOP-C ) Date (LANDSAT-8) Time (LANDSAT-8) Lat,Lon (LANDSAT-8) SZA (LANDSAT-8 ) Distance(km) Time Diff (sec)
1 08/26/2023 16:53:31 -81.21, 148.02 106.94 08/26/2023 16:53:45 -81.21, 147.99 106.94 0.56 14
2 08/26/2023 17:44:11 81.22, -44.10 73.14 08/26/2023 17:43:11 81.22, -44.26 73.09 2.91 60
3 08/29/2023 12:27:50 -81.22,-145.36 105.91 08/29/2023 12:28:00 -81.22,-145.47 105.92 1.86 10
4 08/29/2023 13:18:31 81.22, 22.14 74.13 08/29/2023 13:17:26 81.22, 22.25 74.11 1.85 65
5 09/01/2023 08:02:09 -81.21, -79.18 104.91 09/01/2023 08:02:14 -81.21, -79.11 104.90 1.36 5
6 09/01/2023 08:52:48 81.23, 89.09 75.22 09/01/2023 08:51:39 81.24, 88.96 75.18 2.15 69
7 09/04/2023 02:45:49 81.20, 179.57 76.08 09/04/2023 02:47:02 81.20, 179.44 76.10 2.16 73
8 09/04/2023 03:36:28 -81.21, -12.69 103.86 09/04/2023 03:36:28 -81.22, -12.56 103.84 2.41 0
9 09/04/2023 04:26:52 81.34, 161.44 76.99 09/04/2023 04:25:38 81.52, 161.31 77.06 19.95 74
10 09/06/2023 22:20:09 81.19,-114.39 77.10 09/06/2023 22:21:16 81.19,-114.20 77.15 3.18 67



Historial Predications of SNOs between METOP-C and LANDSAT-8
